Shannon, Ireland

7:02 PM GMT on December 17, 2017 (GMT +0000)
Shannon

Weather History for EINN - November, 2013

Change the Weather History Date:

Tuesday, November 19, 2013

  Actual Average Record
Temperature  
Mean Temperature 40 °F -  
Max Temperature 46 °F 49 °F 57 °F (2003)
Min Temperature 34 °F 39 °F 30 °F (2016)
Degree Days  
Heating Degree Days 25    
Moisture  
Dew Point 35 °F    
Average Humidity 81    
Maximum Humidity 93    
Minimum Humidity 58    
Precipitation  
Precipitation 0.03 in 0.13 in - ()
Sea Level Pressure  
Sea Level Pressure 30.15 in    
Wind  
Wind Speed 8 mph ()    
Max Wind Speed 17 mph    
Max Gust Speed -    
Visibility 6.8 miles    
Events      
Averages and records for this station are not official NWS values.
T = Trace of Precipitation, MM = Missing Value Source: Averaged Metar Reports

Daily Weather History Graph

Daily Weather History Graph

Search for Another Location

Airport or City:

Trip Planner

Search our weather history database for the weather conditions in past years. The results will help you decide how hot, cold, wet, or windy it might be!

Date:

Astronomy

Nov. 19, 2013 Rise Set
Actual Time 8:05 AM GMT 4:36 PM GMT
Civil Twilight 7:26 AM GMT 5:15 PM GMT
Nautical Twilight 6:44 AM GMT 5:57 PM GMT
Astronomical Twilight 6:03 AM GMT 6:37 PM GMT
Moon 6:13 PM GMT (11/19) 9:36 AM GMT (11/19)
Length of Visible Light 9h 48m
Length of Day
8h 30m
Full, 97% of the Moon is Illuminated
Nov 19
Full
Nov 25
Last Quarter
Dec 3
New
Dec 9
First Quarter
Dec 17
Full

Hourly Weather History & Observations

Time (GMT) Temp. Windchill Dew Point Humidity Pressure Visibility Wind Dir Wind Speed Gust Speed Precip Events Conditions
12:00 AM 37 °F - 34 °F 83% 30.07 in 16 mi NW 6.7 mph - -   Partly Cloudy
12:00 AM 37.4 °F 32.1 °F 33.8 °F 87% 30.06 in 6.2 mi NW 6.9 mph - N/A   Partly Cloudy
12:30 AM 35.6 °F 32.8 °F 33.8 °F 93% 30.06 in 6.2 mi NNW 3.5 mph - N/A   Unknown
1:00 AM 35.6 °F 29.2 °F 33.8 °F 93% 30.06 in 6.2 mi NW 8.1 mph - N/A   Scattered Clouds
1:30 AM 35.6 °F 30.7 °F 33.8 °F 93% 30.06 in 6.2 mi WNW 5.8 mph - N/A   Scattered Clouds
2:00 AM 35.6 °F 29.2 °F 32.0 °F 87% 30.06 in 6.2 mi West 8.1 mph - N/A   Scattered Clouds
2:30 AM 37.4 °F 29.3 °F 33.8 °F 87% 30.09 in 6.2 mi WNW 12.7 mph - N/A   Scattered Clouds
3:00 AM 37.4 °F 30.3 °F 33.8 °F 87% 30.09 in 6.2 mi NW 10.4 mph - N/A   Partly Cloudy
3:30 AM 35.6 °F 29.2 °F 32.0 °F 87% 30.09 in 6.2 mi NW 8.1 mph - N/A   Partly Cloudy
4:00 AM 35.6 °F 30.7 °F 32.0 °F 87% 30.09 in 6.2 mi NW 5.8 mph - N/A   Partly Cloudy
4:30 AM 35.6 °F 29.2 °F 32.0 °F 87% 30.09 in 6.2 mi NW 8.1 mph - N/A   Partly Cloudy
5:00 AM 35.6 °F 29.9 °F 32.0 °F 87% 30.12 in 6.2 mi NW 6.9 mph - N/A   Partly Cloudy
5:30 AM 35.6 °F 30.7 °F 32.0 °F 87% 30.12 in 6.2 mi NW 5.8 mph - N/A   Partly Cloudy
6:00 AM 35 °F - 32 °F 86% 30.16 in 16 mi NW 6.7 mph - -   Scattered Clouds
6:00 AM 35.6 °F 30.7 °F 32.0 °F 87% 30.15 in 6.2 mi NW 5.8 mph - N/A   Partly Cloudy
6:30 AM 35.6 °F 31.7 °F 32.0 °F 87% 30.15 in 6.2 mi NNW 4.6 mph - N/A   Partly Cloudy
7:00 AM 35.6 °F 30.7 °F 32.0 °F 87% 30.15 in 6.2 mi WNW 5.8 mph - N/A   Partly Cloudy
7:30 AM 35.6 °F 32.8 °F 32.0 °F 87% 30.18 in 6.2 mi WNW 3.5 mph - N/A   Partly Cloudy
8:00 AM 35.6 °F 30.7 °F 32.0 °F 87% 30.18 in 6.2 mi WSW 5.8 mph - N/A   Partly Cloudy
8:30 AM 37.4 °F 31.4 °F 30.2 °F 75% 30.18 in 6.2 mi West 8.1 mph - N/A   Scattered Clouds
9:00 AM 39.2 °F 33.6 °F 32.0 °F 75% 30.18 in 6.2 mi NW 8.1 mph - N/A   Scattered Clouds
9:30 AM 39.2 °F 34.2 °F 32.0 °F 75% 30.21 in 6.2 mi NW 6.9 mph - N/A   Mostly Cloudy
10:00 AM 39.2 °F 33.6 °F 32.0 °F 75% 30.21 in 6.2 mi NW 8.1 mph - N/A   Mostly Cloudy
10:30 AM 41.0 °F 38.0 °F 33.8 °F 76% 30.21 in 6.2 mi NW 4.6 mph - N/A   Scattered Clouds
11:00 AM 42.8 °F 38.6 °F 33.8 °F 70% 30.21 in 6.2 mi NW 6.9 mph - N/A   Scattered Clouds
11:30 AM 42.8 °F 37.0 °F 35.6 °F 76% 30.21 in 6.2 mi WNW 10.4 mph - N/A   Partly Cloudy
12:00 PM 44 °F - 34 °F 58% 30.23 in 31 mi WNW 11.2 mph - -   Scattered Clouds
12:00 PM 44.6 °F 38.8 °F 33.8 °F 66% 30.21 in 6.2 mi WNW 11.5 mph - N/A   Scattered Clouds
12:30 PM 44.6 °F 38.4 °F 33.8 °F 66% 30.21 in 6.2 mi WNW 12.7 mph - N/A   Mostly Cloudy
1:00 PM 44.6 °F 39.2 °F 33.8 °F 66% 30.21 in 6.2 mi WNW 10.4 mph - N/A   Mostly Cloudy
1:30 PM 44.6 °F 39.2 °F 33.8 °F 66% 30.21 in 6.2 mi WNW 10.4 mph - N/A   Mostly Cloudy
2:00 PM 44.6 °F 39.2 °F 33.8 °F 66% 30.21 in 6.2 mi WNW 10.4 mph - N/A   Mostly Cloudy
2:30 PM 44.6 °F 39.2 °F 33.8 °F 66% 30.21 in 6.2 mi WNW 10.4 mph - N/A   Mostly Cloudy
3:00 PM 44.6 °F 39.7 °F 35.6 °F 71% 30.21 in 6.2 mi WNW 9.2 mph - N/A   Mostly Cloudy
3:30 PM 44.6 °F 40.2 °F 35.6 °F 71% 30.21 in 6.2 mi West 8.1 mph - N/A   Mostly Cloudy
4:00 PM 42.8 °F 37.5 °F 35.6 °F 76% 30.21 in 6.2 mi West 9.2 mph - N/A   Mostly Cloudy
4:30 PM 42.8 °F 38.6 °F 37.4 °F 81% 30.21 in 6.2 mi WSW 6.9 mph - N/A   Mostly Cloudy
5:00 PM 42.8 °F 38.6 °F 37.4 °F 81% 30.18 in 6.2 mi SW 6.9 mph - N/A   Mostly Cloudy
5:30 PM 42.8 °F 37.0 °F 37.4 °F 81% 30.18 in 6.2 mi WSW 10.4 mph - N/A   Mostly Cloudy
6:00 PM 43 °F - 39 °F 80% 30.20 in 19 mi WSW 8.9 mph - -   Scattered Clouds
6:00 PM 42.8 °F 37.5 °F 39.2 °F 87% 30.18 in 6.2 mi WSW 9.2 mph - N/A   Mostly Cloudy
6:30 PM 42.8 °F 35.8 °F 39.2 °F 87% 30.18 in 6.2 mi WSW 13.8 mph - N/A   Mostly Cloudy
7:00 PM 44.6 °F 38.1 °F 39.2 °F 81% 30.18 in 6.2 mi WSW 13.8 mph - N/A   Mostly Cloudy
7:30 PM 44.6 °F 39.2 °F 39.2 °F 81% 30.18 in 6.2 mi SW 10.4 mph - N/A   Mostly Cloudy
8:00 PM 44.6 °F 39.7 °F 41.0 °F 87% 30.15 in 6.2 mi SW 9.2 mph - N/A   Mostly Cloudy
8:30 PM 44.6 °F 38.1 °F 41.0 °F 87% 30.15 in 6.2 mi WSW 13.8 mph - N/A   Mostly Cloudy
9:00 PM 46.4 °F 40.4 °F 41.0 °F 81% 30.12 in 6.2 mi WSW 13.8 mph - N/A   Mostly Cloudy
9:30 PM 46.4 °F 39.5 °F 42.8 °F 87% 30.12 in 6.2 mi WSW 17.3 mph - N/A   Mostly Cloudy
10:00 PM 46.4 °F 40.4 °F 42.8 °F 87% 30.12 in 6.2 mi WSW 13.8 mph - N/A   Mostly Cloudy
10:30 PM 46.4 °F 40.1 °F 42.8 °F 87% 30.09 in 6.2 mi WSW 15.0 mph - N/A   Mostly Cloudy
11:00 PM 46.4 °F 40.1 °F 42.8 °F 87% 30.09 in 6.2 mi WSW 15.0 mph - N/A   Mostly Cloudy
11:30 PM 46.4 °F 39.5 °F 42.8 °F 87% 30.06 in 6.2 mi WSW 17.3 mph - N/A   Mostly Cloudy